www.pogodaiklimat.ru

ПОГОДА в Поплар Блафф, MO

  • Прогноз погоды в Поплар Блафф
  • Монитор погоды в Поплар Блафф
  • Климат в Поплар Блафф

АРХИВ ПОГОДЫ в Поплар Блафф

Время (UTC), дата Ветер
(напр.,м/с)
 
Видим.   Явления Облачность Т
(С)
Тd
(С)
f
(%)
Тe
(С)
Тes
(С)
Комфортность

P
(гПа)

Po
(гПа)
Тmin
(С)
Tmax
(С)
R
(мм)
SD
(см)
13:53 19.08 З  16 км    10/10 180 м  +25.0  +22.2  84  +32  +32  очень
душно 
1016.8  1005.1         
14:29 19.08   16 км    5/5 210 м  +26.7  +22.8  79  +35  +42  очень
душно 
  1005.1         
14:53 19.08 нст  16 км    5/0 3000 м
[средняя] 
+27.8  +23.3  77  +38  +45  очень
душно 
1016.7  1005.1         
15:53 19.08 Ю  16 км    ясно  +29.4  +23.9  72  +40  +56  опасность
солнечного
удара 
1016.3  1004.8         
16:53 19.08 В  16 км    ясно  +31.1  +24.4  68  +44  +58  опасность
перегрева 
1016.1  1004.5  +21.1  +31.1     
17:53 19.08 ЮВ  16 км    ясно  +32.2  +25.0  66  +46  +66  опасность
перегрева 
1015.6  1004.1         
18:53 19.08 ЮВ  16 км    ясно  +31.7  +23.3  61  +42  +55  опасность
перегрева 
1015.0  1003.5         
19:53 19.08   16 км    ясно  +31.7  +24.4  65  +44  +64  опасность
перегрева 
1015.0  1003.5         
20:53 19.08   16 км    ясно  +30.6  +26.1  77  +46  +60  опасность
перегрева 
1014.3  1002.8         
21:53 19.08   16 км    ясно  +30.6  +25.6  75  +45  +53  опасность
перегрева 
1014.4  1002.8         
22:53 19.08 Ю  16 км    ясно  +30.0  +24.4  72  +42  +44  опасность
перегрева 
1013.9  1002.5  +30.0  +33.3     
23:53 19.08   16 км    ясно  +27.8  +25.6  88  +41  +42  опасность
перегрева 
1014.6  1003.1         
00:53 20.08   16 км    ясно  +27.2  +25.0  88  +39  +39  очень
душно 
1015.4  1003.8         
01:53 20.08   14 км    ясно  +26.7  +25.0  90  +38  +38  очень
душно 
1015.9  1004.5         
02:53 20.08   13 км    ясно  +25.6  +24.4  93  +36  +36  очень
душно 
1016.0  1004.5         
03:53 20.08   6 км  дымка  ясно  +25.6  +24.4  93  +36  +36  очень
душно 
1016.1  1004.5         
04:53 20.08   8 км  дымка  ясно  +25.0  +23.9  94  +34  +34  очень
душно 
1016.0  1004.5  +25.0  +30.0     
05:53 20.08   10 км  дымка  ясно  +24.4  +23.3  94  +33  +33  очень
душно 
1015.5  1004.1         
06:53 20.08   6 км  дымка  ясно  +24.4  +23.3  94  +33  +33  очень
душно 
1015.5  1004.1         
07:20 20.08   2 км  дымка  ясно  +23.9  +23.3  96  +32  +32  очень
душно 
  1004.1         
07:32 20.08   5 км  дымка  ясно  +24.4  +23.3  94  +33  +33  очень
душно 
  1004.1         
07:42 20.08 С  4 км  дымка  2/2 90 м  +23.9  +23.3  96  +32  +32  очень
душно 
  1004.1         
07:50 20.08   2 км  дымка  2/2 90 м  +24.0  +23.0  94  +32  +32  очень
душно 
  1004.1         
07:53 20.08   3 км  дымка  2/2 90 м  +23.9  +23.3  96  +32  +32  очень
душно 
1015.8  1004.1         
08:05 20.08   6 км  дымка  2/2 90 м  +23.9  +22.8  94  +32  +32  очень
душно 
  1004.5         
08:37 20.08   5 км  дымка  8/8 90 м  +23.9  +22.8  94  +32  +32  очень
душно 
  1004.5         
08:39 20.08   2 км  дымка  8/8 90 м  +23.9  +22.8  94  +32  +32  очень
душно 
  1004.5         
08:48 20.08   400 м  туман  ?/?  +24.0  +23.0  94  +32  +32  очень
душно 
  1004.1         
08:53 20.08   400 м  туман  ?/?  +23.3  +22.8  97  +32  +32  очень
душно 
1015.7  1004.1         
09:04 20.08   1 км  дымка  ?/?  +23.3  +22.8  97  +32  +32  очень
душно 
  1004.1         
09:08 20.08   3 км  дымка  10/10 60 м  +23.3  +22.8  97  +32  +32  очень
душно 
  1004.1         
09:17 20.08   8 км  дымка  8/8 60 м  +23.9  +22.8  94  +32  +32  очень
душно 
  1004.1         
09:21 20.08   2 км  дымка  8/8 60 м  +23.9  +22.8  94  +32  +32  очень
душно 
  1004.1         
09:29 20.08 ЮВ  800 м  туман  ?/?  +23.3  +22.8  97  +32  +32  очень
душно 
  1004.1         
09:39 20.08 ЮВ  3 км  дымка  5/5 90 м  +23.9  +22.8  94  +32  +32  очень
душно 
  1004.1         
09:53 20.08 Ю  5 км  дымка  2/2 90 м  +23.9  +23.3  96  +32  +32  очень
душно 
1015.5  1004.1         
10:34 20.08   3 км  дымка  ясно  +23.9  +22.8  94  +32  +32  очень
душно 
  1004.1         
10:53 20.08   8 км  дымка  ясно  +23.9  +22.8  94  +32  +32  очень
душно 
1015.6  1004.1  +23.3  +25.0     
11:23 20.08   4 км  дымка  ясно  +25.0  +23.3  90  +33  +34  очень
душно 
  1004.8         
11:30 20.08   5 км  дымка  ясно  +25.0  +23.9  94  +34  +35  очень
душно 
  1004.8         
11:53 20.08   8 км  дымка  ясно  +26.1  +24.4  90  +36  +37  очень
душно 
1016.8  1005.5         
12:53 20.08   16 км    ясно  +28.3  +24.4  79  +40  +43  очень
душно 
1017.6  1006.1         
13:53 20.08     16 км    ясно  +35.0  +25.6  58  +50  +57  опасность
перегрева 
1017.6  1006.1         
14:53 20.08     16 км    ясно  +32.2  +25.6  68  +47  +61  опасность
перегрева 
1017.1  1005.8         
15:53 20.08     16 км    ясно  +32.8  +24.4  61  +45  +64  опасность
перегрева 
1016.9  1005.5         
16:53 20.08 Ю  16 км    2/2 960 м  +33.3  +25.6  64  +48  +57  опасность
перегрева 
1016.5  1005.1  +23.9  +36.7     
17:53 20.08 ЮЗ  16 км    ясно  +33.9  +24.4  58  +47  +59  опасность
перегрева 
1016.3  1004.8         
18:53 20.08 ЮЗ  16 км    ясно  +33.9  +23.9  56  +45  +54  опасность
перегрева 
1015.0  1003.5         

 

Местоположение метеостанции Poplar Bluff Municipal Airport: широта 36.7706 долгота -90.3222 высота над уровнем моря 100 м.

В архиве по умолчанию представлена погода в Поплар Блафф за последние 1-2 суток. Обновление информации о фактической погоде в базе происходит ежечасно! Архивные данные за месяц целиком и за предыдущие месяцы Вы можете получить, выбрав интересующий диапазон дат из раскрывающегося списка и нажав кнопку "Ввод!".

Внимание! Архив погоды МЕТАР в базе сайта хранится не более 60 дней. Нет смысла пытаться выбрать более раннюю дату.

Внимание! Время в таблицах - всемирное. Для получения местного времени необходимо прибавить поправку, которая в Поплар Блафф равна -6 ч.

Ветер - указаны скорость ветра в м/с и направление, откуда дует ветер: С - северный, СВ - северо-восточный, В - восточный, ЮВ - юго-восточный, Ю - южный, ЮЗ - юго-западный, З - западный, СЗ - северо-западный.
Видимость - горизонтальная дальность видимости в метрах или километрах. При видимости от 1 до 10 км при отсутствии осадков обычно наблюдается дымка, при ухудшении видимости до 1 км и менее - туман. В сухую погоду видимость может ухудшаться дымом, пылью или мглою.
Атмосферные явления - указаны явления, наблюдавшиеся в указанный момент времени.
Облачность - указаны через наклонную черту верхняя и нижняя облачность в баллах и высота нижней границы облаков в метрах. Внимание: облачность, как и прочие метеорологические величины в США измеряются автоматическими метеостанциями. Указанные значения в баллах носят условный характер и показывают процент времени, в течение которого, в среднем, лазерный луч высотомера отражался от облаков обратно.
T - Температура воздуха - температура, измеренная на высоте 2 м над землей.
Td - Температура точки росы - температура, при понижении до которой содержащийся в воздухе водяной пар достигнет насыщения.
f - Относительная влажность воздуха - влажноcть воздуха, измеренная на высоте 2 м над землей.
Te - Эффективная температура - температура, которую ощущает одетый по сезону человек в тени. Характеристика душности погоды. При расчете учитывается влияние влажности воздуха и скорости ветра на теплоощущения человека.
Tes - Эффективная температура на солнце - температура, которую ощущает человек, с поправкой на солнечный нагрев. Характеристика знойности погоды. Зависит от высоты солнца над горизонтом, облачности и скорости ветра. Ночью, в пасмурную погоду, а также при ветре 12 м/с и более поправка равна нулю.
P - Атмосферное давление - приведенное к уровню моря атмосферное давление.
Po - Атмосферное давление - измеренное на уровне метеостанции атмосферное давление.
Tmin - Минимальная температура - минимум температуры воздуха на высоте 2 м над землей.
Tmax - Максимальная температура - максимум температуры воздуха на высоте 2 м над землей.
R - Количество осадков - Количество выпавших осадков за 3 или 6 часов, мм.
SD - Снежный покров - Высота снежного покрова, см.